Location: Yellowknife
(62.4500°N, 114.3500°W)
Time: 06:53:26
(UTC-07:00)

OTV 5 (USA 277) - Visible Passes

Search period start: 21 January 2019 00:00
Search period end: 31 January 2019 00:00
Orbit: 339 x 349 km, 54.5° (Epoch: 15 January)

Date Brightness Start Highest point End Pass type
(mag) Time Alt. Az. Time Alt. Az. Time Alt. Az.
27 Jan ? 07:57:20 10° SSE 07:57:55 10° SSE 07:58:31 10° SE visible
28 Jan ? 08:19:26 10° SSW 08:21:09 15° SSE 08:22:52 10° SE visible
29 Jan ? 07:09:55 10° SSE 07:10:22 10° SSE 07:10:50 10° SE visible
30 Jan ? 07:31:54 10° SSW 07:33:36 14° SSE 07:35:18 10° SE visible
